User: anonymous   Login
Location: Columbia
(38.9520°N, 92.3340°W)
Time: 21:25:02
(UTC-05:00)
Language:

Meteor 1-4 Rocket - Orbit

View from above orbital plane
View from above orbital plane
View from above satellite
View from above satellite

Ground track
Ground track

The orbit data is extracted from the following two-line orbital elements,

1  4394U 70037B   15243.90434717 +.00002834 +00000-0 +10907-3 0  9994
2  4394 081.2418 062.8053 0043416 196.2662 163.7182 15.25126599465244
Epoch (UTC): 31 August 2015 21:42:15
Eccentricity: 0.0043416
inclination: 81.2418°
perigee height: 460 km
apogee height: 520 km
right ascension of ascending node: 62.8053°
argument of perigee: 196.2662°
revolutions per day: 15.25126599
mean anomaly at epoch: 163.7182°
orbit number at epoch: 46524

The dashed part of the orbit path shows where the satellite is in the earth's shadow,  

DLR